Temperature
13 14 14 15 12 10 11 12 12 13 13 15 15 15 14 14 15 15 14 15 15 16 16 16 16 16 16 16 16 17 17 17 17 16 17 17 17 17 17 17 16 16 16 16 16 16 16 16 16
13 13 14 14 10 11 12 11 12 13 14 15 15 15 14 14 14 14 14 15 15 15 15 16 16 16 16 16 16 16 16 16 16 16 16 16 16 16 16 16 16 16 16 16 16 16 16 16 16
13 13 14 9 10 11 13 12 11 13 14 15 14 14 13 13 13 14 14 14 15 15 15 15 16 16 16 16 16 16 16 16 16 16 16 16 16 16 16 16 16 16 16 16 16 16 15 15 15
13 13 12 9 11 11 12 12 11 12 14 14 13 12 13 13 13 14 14 14 15 15 15 15 15 15 16 16 16 16 16 16 16 16 16 16 16 16 16 16 16 16 16 16 16 15 15 15 15
13 13 9 9 10 11 11 12 12 12 12 13 13 11 12 13 13 14 14 14 15 15 15 15 15 15 15 15 15 16 16 16 16 16 16 16 16 16 16 16 16 16 16 16 16 15 15 15 15
12 9 9 9 11 11 11 12 12 12 12 13 12 11 12 12 13 13 14 14 14 14 15 15 15 15 15 15 15 15 15 16 15 15 15 16 16 16 16 16 16 16 15 15 15 15 15 15 15
11 8 9 10 10 11 11 12 12 11 11 12 12 11 12 12 13 13 13 14 14 14 14 14 15 15 15 15 15 15 15 15 15 15 15 15 15 15 15 15 15 15 15 15 15 15 15 15 15
11 8 9 9 10 11 11 12 12 12 11 12 12 11 11 12 12 13 13 13 13 13 14 14 14 14 14 15 15 15 15 15 15 15 15 15 15 15 15 15 15 15 15 15 15 15 15 15 15
11 8 8 9 10 11 11 11 12 12 12 11 11 12 12 12 12 12 13 13 13 13 13 13 13 14 14 14 14 15 15 15 15 15 15 15 15 15 15 15 15 15 15 15 15 15 15 15 15
10 8 9 10 10 10 10 10 11 11 10 10 11 11 11 12 12 12 12 12 13 13 13 13 13 13 13 13 14 14 14 14 14 15 15 15 14 15 15 15 15 15 15 15 14 14 14 15 14
9 8 9 10 10 10 10 10 10 10 9 10 10 11 11 11 11 12 12 12 12 12 12 12 12 12 13 13 13 13 14 14 14 14 14 14 14 14 14 14 14 14 14 14 14 14 14 14 14
8 8 9 10 10 10 10 10 10 10 10 11 11 11 11 11 11 11 11 11 11 11 11 11 12 12 12 12 13 13 13 13 14 14 14 14 14 14 14 14 14 14 14 14 14 14 14 14 14
8 8 9 9 10 10 9 9 9 9 10 11 11 10 10 10 10 10 10 10 10 11 11 11 11 11 12 12 12 12 13 13 13 13 13 13 14 14 14 14 14 14 14 14 14 14 14 14 14
8 8 8 9 9 9 9 9 9 9 10 10 10 10 10 10 10 10 10 10 10 10 10 10 11 11 11 11 12 12 12 12 13 13 13 13 13 13 13 14 14 14 14 14 14 14 14 14 14
8 8 8 8 9 9 9 8 8 9 10 10 10 10 9 9 10 9 9 9 10 10 10 10 10 10 11 11 11 11 12 12 12 12 12 13 13 13 13 13 13 13 13 13 13 13 13 13 13
7 7 7 8 8 9 9 8 8 9 9 9 9 9 9 9 9 9 9 9 9 9 9 9 10 10 10 11 11 11 11 11 11 12 12 12 12 12 12 12 13 13 13 13 13 13 13 13 13
6 6 7 7 8 8 8 8 8 9 8 8 8 8 9 9 9 9 8 8 9 9 9 9 9 9 10 10 10 10 11 11 11 11 11 11 12 12 12 12 12 12 12 13 13 13 13 13 13
6 6 7 7 7 7 7 7 7 8 8 7 8 8 8 8 8 8 8 8 8 8 8 9 9 9 9 10 10 10 10 10 10 10 11 11 11 11 11 11 12 12 12 12 12 12 12 12 12
6 6 6 6 7 7 6 6 7 7 7 6 7 7 8 8 8 8 8 8 8 8 8 8 8 9 9 9 9 9 10 10 10 10 10 10 11 11 11 11 11 11 12 12 12 12 12 12 12
6 6 6 6 7 7 6 6 6 6 6 7 7 7 8 8 8 8 8 8 8 8 8 8 8 8 8 8 8 8 9 9 9 10 10 10 10 10 10 11 11 11 11 11 12 12 12 12 12
6 6 6 6 6 6 6 6 7 7 6 7 7 7 8 8 8 7 7 7 7 7 7 7 7 8 8 8 8 8 8 8 9 9 9 9 10 10 10 10 10 11 11 11 11 11 11 11 11
6 6 6 6 5 5 6 6 6 6 6 6 6 7 7 7 7 7 7 7 7 7 7 7 7 7 7 7 7 7 7 8 8 8 8 9 9 9 9 9 10 10 10 10 10 11 11 11 11
6 6 6 6 5 5 5 5 6 6 6 6 6 7 7 7 7 7 7 7 7 7 7 7 7 7 7 7 7 7 7 7 7 7 8 8 8 9 9 9 9 9 10 10 10 10 10 10 10
6 6 5 4 4 6 6 5 6 5 6 6 6 7 7 7 7 7 7 6 6 7 6 6 6 6 6 6 6 6 6 6 7 7 7 8 8 8 8 8 9 9 9 9 9 9 9 10 10
6 5 5 5 5 6 5 5 5 6 6 6 6 6 7 7 7 7 6 6 6 6 6 6 6 6 6 6 6 6 6 6 6 6 7 7 7 8 8 8 8 8 8 9 9 9 9 9 9
5 5 5 6 5 5 5 4 5 6 6 6 6 7 7 7 7 6 6 6 6 6 6 6 5 5 5 6 6 6 6 6 6 6 6 6 7 7 7 7 7 8 8 8 8 8 9 9 9
5 4 5 4 4 4 5 5 5 5 5 5 6 6 6 6 6 6 6 6 6 5 5 5 5 5 5 5 5 5 5 5 6 6 6 6 6 6 7 7 7 7 7 7 7 8 8 8 8
5 4 3 4 5 6 6 5 5 6 6 5 4 5 6 6 6 6 6 5 5 5 5 5 5 5 5 5 5 5 5 5 5 5 6 6 6 6 6 6 6 7 7 7 7 7 7 7 8
5 4 4 3 4 4 5 6 6 5 5 5 4 6 6 6 6 6 5 5 5 5 5 5 4 5 5 5 4 4 5 5 5 5 5 5 5 6 6 6 6 6 6 6 6 7 7 7 7
5 4 3 4 4 2 3 5 6 5 4 4 5 6 6 6 6 5 5 5 5 4 4 4 4 4 4 4 4 4 4 4 5 5 5 5 5 5 5 5 5 5 6 6 6 6 6 6 6
Wind_Speed
5 4 3 4 5 4 3 4 3 2 2 2 1 3 5 4 3 3 1 4 4 2 3 3 4 5 6 8 8 9 9 9 9 10 10 11 12 12 12 12 12 12 11 11 11 12 12 13 14
2 2 5 5 5 2 5 5 5 4 3 1 2 4 4 3 2 2 2 4 4 3 4 4 5 4 5 5 7 8 8 8 8 9 9 10 11 11 11 11 11 11 11 11 12 12 12 13 13
2 4 5 5 4 6 5 4 5 2 1 2 3 4 3 2 2 1 3 3 3 5 6 6 6 5 4 4 4 5 7 8 8 8 9 9 9 11 11 11 10 11 11 11 12 12 12 12 13
3 5 5 4 4 5 4 2 3 1 1 3 3 4 2 2 2 1 3 3 4 5 7 7 6 5 4 3 2 2 3 5 7 8 9 9 9 10 11 10 10 11 11 11 12 12 12 12 12
4 4 4 2 4 3 3 2 2 2 1 2 3 3 2 3 3 4 4 4 4 5 7 7 7 5 4 3 2 0 1 2 4 6 8 9 10 9 10 10 11 11 11 11 12 12 12 12 11
4 4 4 4 4 2 2 2 2 2 2 2 3 3 1 2 4 4 4 4 4 4 6 7 6 6 5 4 2 2 2 3 3 4 7 9 9 10 10 10 11 12 12 12 12 12 13 12 12
4 4 4 5 3 2 1 0 3 2 2 1 2 3 0 2 2 3 4 5 5 6 6 7 7 6 6 5 4 3 2 3 3 4 5 7 9 10 10 10 11 12 13 12 13 13 13 13 12
4 5 4 3 4 3 1 1 1 2 2 0 2 4 2 2 2 3 4 5 5 6 6 6 7 7 6 5 5 5 4 4 4 4 4 6 8 10 11 11 11 12 13 13 13 13 13 12 12
4 4 3 4 5 2 0 2 2 1 3 2 2 2 2 0 2 5 5 6 6 7 6 6 6 7 6 5 5 5 5 4 4 4 4 5 6 8 9 10 11 12 13 14 14 13 13 12 12
4 3 4 2 2 2 0 1 1 2 3 2 2 2 3 3 4 5 5 6 7 7 7 5 5 6 6 6 5 4 4 3 3 3 3 4 5 6 8 10 11 12 13 14 14 14 13 11 9
3 4 1 1 1 1 1 1 1 4 1 3 3 1 2 3 4 4 4 4 5 5 6 6 5 5 5 4 4 4 3 3 3 3 3 3 4 4 5 6 8 10 11 11 12 11 10 9 8
3 0 1 1 1 1 1 1 1 1 3 2 3 3 2 2 3 3 3 5 5 6 7 7 6 5 5 4 4 3 3 2 2 2 3 2 2 3 4 4 5 6 8 7 8 7 8 9 9
2 0 1 1 2 1 2 1 1 1 2 1 2 2 1 1 2 2 3 3 5 6 7 7 6 6 5 4 3 3 3 3 3 3 3 3 3 3 4 4 5 6 7 7 7 7 7 8 8
2 2 2 3 2 1 1 1 1 3 0 2 2 1 1 1 1 3 4 5 5 6 7 7 7 6 5 4 3 3 3 3 3 3 4 4 4 3 3 4 5 6 7 8 8 8 7 7 6
2 3 4 4 2 1 2 3 2 2 2 2 1 1 2 2 2 3 4 4 5 6 7 7 7 6 5 5 4 3 3 3 3 3 4 4 4 4 4 3 4 5 7 8 7 7 6 5 6
4 4 2 4 3 2 2 3 2 1 3 0 1 1 2 3 3 3 4 4 5 6 7 8 7 7 6 5 4 3 3 3 3 3 3 3 4 4 3 4 4 4 5 6 6 7 6 6 6
5 3 0 3 3 2 1 5 4 1 1 2 2 2 2 3 4 4 4 4 5 6 7 7 7 6 6 6 4 4 3 2 2 3 3 3 3 3 3 3 3 4 4 5 6 6 6 6 6
1 1 0 2 3 1 2 7 6 3 3 4 3 3 3 3 4 4 4 4 5 6 7 7 7 6 6 5 4 3 3 3 2 3 3 4 3 3 2 3 3 3 4 5 6 6 6 6 5
4 2 1 3 2 1 4 7 8 4 2 3 3 3 3 4 4 4 4 4 5 6 7 7 7 7 5 4 4 3 3 3 3 3 4 4 4 3 3 3 2 3 4 6 7 5 6 6 4
3 2 1 3 2 1 4 7 6 3 3 4 4 4 4 4 4 5 5 5 5 6 7 7 7 7 6 4 4 3 3 3 3 3 3 3 3 3 3 3 3 3 4 5 6 5 4 4 5
1 2 2 2 4 3 3 6 4 2 2 2 3 4 4 4 4 5 5 6 6 7 8 8 8 7 6 5 4 3 3 3 3 3 3 3 3 3 3 3 3 4 4 4 5 6 6 5 5
1 2 2 0 2 3 2 3 6 3 4 4 4 4 5 5 4 4 5 6 6 7 7 7 7 7 6 5 3 3 3 3 4 3 3 3 4 4 3 3 3 4 4 4 4 5 5 6 6
2 1 1 1 1 2 0 2 8 2 4 6 6 5 5 5 4 4 4 5 5 6 6 7 7 7 6 5 4 3 3 3 3 3 3 3 3 3 3 3 3 3 3 4 4 5 5 5 6
1 3 4 4 3 2 3 4 7 5 6 5 5 5 5 4 4 4 4 4 4 5 6 6 7 7 6 5 4 3 4 4 4 4 4 3 3 2 3 3 2 3 3 4 5 5 6 6 6
4 4 3 4 3 4 1 3 8 6 6 5 6 5 4 3 3 3 4 4 5 6 6 6 7 8 7 6 5 5 4 4 4 4 4 4 3 3 3 3 2 2 3 3 4 5 6 6 6
1 4 4 3 3 5 2 6 7 4 4 4 4 4 3 3 3 3 3 3 5 6 6 6 7 7 7 7 6 5 5 3 3 4 4 4 4 3 3 2 2 2 3 3 3 4 5 5 6
3 2 3 4 0 3 6 7 8 2 2 2 2 2 3 4 3 3 3 4 4 5 6 6 6 7 7 7 6 6 5 4 4 5 4 3 3 2 2 2 2 2 3 3 3 3 3 3 4
2 5 4 3 1 4 6 5 5 5 5 4 4 4 4 4 3 3 3 4 4 4 5 5 5 6 6 6 6 5 5 5 4 3 3 3 3 2 2 2 2 3 2 2 2 2 2 2 3
3 3 3 2 3 3 4 7 5 6 6 6 6 5 5 4 4 4 4 4 4 4 4 5 6 6 6 6 6 6 5 5 4 3 3 3 3 2 2 2 2 2 2 2 2 2 2 3 2
3 5 6 3 4 3 3 8 5 5 6 5 6 5 5 5 4 3 3 3 4 4 4 5 5 6 6 6 5 5 5 4 4 4 4 3 2 2 1 1 1 1 1 1 2 2 2 2 3
Wind_Direction
2 26 62 57 63 66 212 230 217 223 230 241 174 133 133 128 144 155 279 350 352 355 13 62 98 112 140 153 149 149 148 148 148 147 144 147 148 148 148 149 148 146 143 140 137 134 130 127 124
18 49 57 64 104 157 245 227 213 213 202 133 68 86 84 72 47 74 352 338 357 17 33 58 75 94 115 139 158 159 156 159 161 159 155 155 157 157 156 155 153 151 150 146 142 138 137 134 131
72 54 86 89 139 183 208 213 213 250 259 94 72 61 95 84 27 26 329 333 21 29 30 45 62 64 86 112 139 165 168 168 171 172 169 167 167 166 164 161 158 156 155 151 147 145 143 140 138
78 55 62 95 189 212 211 223 194 162 46 53 98 66 40 9 344 340 346 14 37 27 28 37 54 57 59 75 106 148 177 186 185 187 184 180 177 175 174 170 165 162 161 158 155 152 149 147 145
59 85 88 122 217 240 246 256 181 131 91 52 97 98 25 352 3 23 26 34 38 17 20 32 38 39 43 42 42 13 209 205 205 202 199 193 190 185 182 178 173 170 168 168 164 162 158 155 153
64 78 117 192 219 251 267 254 143 106 88 69 94 100 122 356 24 13 27 33 33 25 17 21 28 28 23 15 2 333 284 243 223 214 209 205 198 195 191 187 181 178 176 175 172 169 167 165 159
112 110 155 176 187 228 246 62 133 131 103 123 131 109 144 334 4 18 27 35 31 27 22 15 13 12 9 3 345 318 302 278 248 233 217 213 207 201 197 192 192 187 184 182 180 176 174 172 167
122 110 123 173 174 212 266 53 83 130 153 51 106 132 195 256 345 23 29 33 27 22 18 10 3 1 358 348 338 326 301 287 264 248 238 223 215 207 203 196 199 197 192 187 185 183 180 177 172
93 90 171 193 183 204 285 81 19 42 91 39 48 144 193 87 25 31 26 17 12 7 1 2 358 354 348 339 334 330 310 289 270 257 246 231 217 209 207 201 203 202 198 193 190 189 186 181 176
89 148 201 208 190 176 89 98 80 66 49 46 36 23 35 38 40 38 23 4 357 348 344 351 348 345 344 337 339 334 316 297 273 260 251 232 214 210 209 205 203 206 202 198 196 194 190 182 176
100 162 186 325 316 126 90 56 47 119 144 204 182 173 30 45 35 31 11 351 339 332 336 340 338 341 342 340 337 335 323 305 277 258 250 243 221 212 210 202 205 207 203 200 200 195 191 181 177
108 108 131 311 11 60 117 107 46 131 208 202 167 154 99 53 21 7 349 336 333 338 333 334 336 335 333 334 328 326 327 319 305 275 246 235 231 220 210 205 201 202 200 196 195 191 190 185 184
98 85 349 351 35 64 83 84 126 281 264 76 102 96 102 60 356 342 335 336 339 338 333 329 328 327 328 327 320 324 315 304 291 285 262 236 231 228 224 217 209 205 200 196 194 192 191 189 187
118 80 7 351 7 20 99 333 99 268 66 94 94 67 34 7 353 352 348 345 340 334 327 325 326 326 329 318 306 305 305 301 296 286 269 247 234 225 218 219 216 212 207 201 197 196 196 197 193
91 63 22 7 0 343 50 337 239 245 103 96 71 22 360 343 349 345 331 333 333 328 325 327 326 332 328 317 306 313 309 307 301 293 280 262 243 225 217 216 218 219 211 202 197 198 195 198 199
63 63 36 337 359 352 87 271 282 97 114 219 295 326 331 327 335 330 330 332 333 332 330 328 330 330 327 321 314 315 313 309 303 302 299 287 260 232 216 216 224 225 210 199 196 195 200 205 205
49 86 48 316 344 16 120 253 279 351 146 247 271 289 305 320 327 324 328 326 329 329 327 327 327 327 325 322 317 313 309 295 304 312 306 299 284 250 216 216 223 219 208 202 201 198 199 205 209
144 126 219 270 313 8 251 261 280 284 217 236 261 278 290 298 299 308 322 327 330 330 330 327 329 330 328 323 319 313 305 303 314 303 294 288 280 263 233 217 219 214 212 205 204 200 199 200 203
138 136 253 274 294 326 262 271 282 277 222 239 255 264 272 280 291 306 320 332 338 337 336 331 332 333 335 334 328 320 311 303 296 287 284 279 276 259 232 227 208 209 220 214 203 202 202 204 188
109 106 301 305 332 306 294 285 280 246 215 216 227 243 255 280 310 320 328 338 341 338 333 329 332 331 329 325 310 295 299 293 283 284 289 283 284 272 240 220 220 216 220 223 207 196 206 208 190
28 172 209 266 345 7 341 312 290 276 248 250 242 243 254 258 279 307 322 326 334 335 331 330 328 327 328 328 321 319 322 311 303 298 288 295 292 281 259 229 222 223 216 220 213 202 203 208 207
276 236 192 151 32 320 35 299 281 273 282 264 262 260 263 270 276 291 308 320 326 324 327 329 330 334 335 336 328 319 312 298 292 297 295 305 300 287 268 252 232 223 213 214 220 215 205 202 209
206 46 108 108 118 326 340 214 282 294 265 259 261 263 267 269 267 277 290 300 316 326 333 334 336 338 339 341 334 316 306 297 302 311 307 302 296 291 286 267 242 224 215 212 215 215 208 209 209
123 59 63 54 65 299 228 193 276 241 229 249 257 265 270 270 273 284 297 312 324 333 337 340 342 341 344 344 340 321 307 310 315 318 310 306 303 292 287 273 244 237 226 217 216 213 212 214 212
66 79 33 3 358 262 221 217 253 251 236 231 246 263 272 267 271 289 305 318 324 330 334 341 342 340 343 347 341 330 310 303 297 295 296 298 299 296 282 264 250 244 238 230 223 215 218 217 216
87 119 143 204 246 289 290 242 257 260 264 252 244 252 269 270 270 276 287 302 312 320 329 337 337 333 340 344 342 336 322 309 298 293 285 281 276 273 280 264 256 249 241 240 235 224 220 218 218
121 127 146 136 215 284 274 279 297 245 275 262 250 259 270 268 267 276 300 312 314 318 321 324 327 329 336 340 338 338 330 314 300 291 286 283 278 272 280 274 260 252 237 226 223 226 219 218 221
131 141 105 129 189 279 290 278 263 266 257 260 256 254 262 270 281 286 296 305 308 310 315 322 322 323 325 332 333 333 325 320 315 311 292 287 284 277 284 281 264 257 245 229 218 223 208 213 228
132 129 131 136 174 198 277 275 233 233 233 236 247 251 259 267 269 274 289 299 304 317 327 329 329 331 333 333 329 329 325 325 326 326 320 301 295 297 291 284 275 259 241 226 221 230 210 213 226
190 184 158 171 228 204 230 271 274 241 241 236 253 263 264 261 261 263 276 295 306 314 324 329 329 331 330 330 328 324 324 332 339 337 328 323 322 318 300 290 284 267 263 238 223 231 226 219 225
Height
1491 1492 1495 1498 1504 1516 1516 1511 1507 1505 1505 1503 1503 1503 1505 1508 1511 1517 1514 1512 1513 1514 1515 1516 1517 1518 1519 1520 1522 1522 1524 1525 1526 1527 1528 1529 1530 1531 1532 1533 1534 1535 1536 1537 1538 1539 1540 1541 1541
1491 1493 1497 1498 1509 1519 1515 1507 1505 1502 1502 1502 1502 1503 1505 1507 1509 1511 1511 1512 1513 1514 1514 1515 1517 1518 1519 1520 1521 1522 1523 1524 1526 1527 1528 1529 1530 1531 1532 1533 1534 1535 1536 1537 1538 1539 1540 1541 1542
1491 1494 1497 1501 1510 1513 1506 1502 1502 1500 1501 1501 1502 1504 1506 1508 1509 1510 1511 1512 1513 1513 1514 1515 1516 1517 1518 1519 1521 1522 1523 1524 1525 1526 1527 1528 1529 1531 1532 1533 1534 1535 1536 1537 1538 1539 1540 1541 1542
1492 1495 1497 1505 1506 1505 1501 1499 1499 1500 1500 1501 1502 1505 1507 1509 1509 1510 1511 1512 1513 1513 1514 1515 1516 1517 1518 1518 1519 1520 1522 1523 1524 1525 1527 1528 1529 1530 1531 1532 1533 1535 1536 1537 1538 1539 1540 1541 1542
1491 1493 1501 1507 1504 1502 1500 1498 1498 1499 1500 1501 1502 1505 1507 1509 1509 1510 1511 1511 1512 1513 1514 1514 1515 1516 1517 1517 1518 1519 1520 1521 1522 1524 1525 1526 1527 1529 1530 1531 1533 1534 1535 1536 1538 1539 1540 1541 1542
1491 1494 1505 1507 1502 1500 1499 1498 1498 1499 1500 1501 1502 1505 1507 1508 1509 1509 1510 1511 1512 1512 1513 1513 1514 1514 1515 1516 1517 1517 1518 1519 1521 1522 1523 1524 1526 1527 1528 1530 1531 1533 1534 1535 1537 1538 1539 1541 1542
1492 1497 1503 1503 1502 1500 1498 1497 1498 1499 1500 1502 1502 1505 1506 1508 1508 1509 1509 1510 1510 1511 1511 1511 1512 1512 1513 1514 1514 1515 1516 1517 1518 1519 1521 1522 1524 1525 1526 1528 1529 1531 1533 1534 1536 1537 1538 1540 1541
1490 1496 1501 1503 1501 1499 1498 1497 1498 1499 1500 1502 1502 1504 1505 1507 1507 1508 1508 1508 1508 1509 1509 1509 1510 1510 1511 1511 1512 1512 1513 1514 1515 1517 1518 1519 1521 1523 1524 1526 1527 1529 1531 1532 1534 1536 1537 1538 1540
1491 1499 1502 1500 1500 1498 1497 1497 1498 1499 1500 1501 1502 1503 1504 1506 1506 1506 1506 1506 1506 1507 1507 1507 1507 1507 1507 1508 1508 1509 1510 1511 1512 1513 1515 1516 1518 1520 1521 1523 1525 1526 1528 1530 1532 1534 1535 1537 1538
1491 1499 1498 1497 1496 1496 1496 1497 1498 1499 1500 1501 1502 1502 1504 1505 1505 1505 1505 1504 1504 1504 1504 1504 1504 1504 1504 1504 1505 1505 1506 1507 1508 1510 1511 1513 1514 1516 1518 1520 1522 1524 1525 1527 1529 1531 1533 1535 1536
1492 1496 1496 1495 1495 1496 1496 1497 1498 1498 1501 1500 1500 1501 1503 1503 1504 1504 1503 1503 1503 1502 1502 1501 1501 1500 1500 1501 1501 1501 1502 1503 1504 1505 1507 1509 1510 1512 1514 1516 1518 1520 1522 1524 1526 1528 1530 1532 1534
1494 1495 1495 1495 1495 1496 1497 1497 1498 1498 1499 1500 1500 1501 1502 1502 1503 1502 1502 1501 1501 1500 1499 1498 1497 1497 1496 1497 1497 1497 1498 1499 1500 1501 1503 1504 1506 1508 1510 1512 1514 1516 1518 1520 1522 1524 1527 1529 1530
1493 1495 1495 1495 1495 1496 1496 1497 1498 1498 1498 1499 1500 1501 1501 1502 1501 1501 1500 1500 1499 1497 1496 1495 1494 1493 1493 1492 1493 1493 1493 1494 1495 1496 1498 1499 1501 1503 1505 1507 1510 1512 1514 1516 1518 1521 1523 1525 1527
1494 1495 1496 1496 1496 1496 1497 1498 1498 1497 1498 1499 1499 1500 1500 1501 1500 1499 1499 1497 1496 1494 1493 1492 1490 1490 1489 1488 1488 1488 1489 1490 1490 1491 1493 1495 1497 1498 1500 1502 1505 1507 1509 1511 1514 1516 1519 1521 1523
1494 1496 1497 1497 1496 1497 1498 1499 1498 1497 1497 1498 1498 1499 1499 1499 1499 1498 1497 1495 1494 1492 1490 1488 1487 1486 1485 1484 1484 1484 1484 1485 1486 1487 1488 1490 1492 1493 1495 1498 1500 1502 1504 1506 1509 1512 1515 1517 1519
1495 1499 1502 1499 1498 1498 1501 1502 1497 1497 1497 1497 1497 1498 1498 1498 1498 1497 1495 1494 1492 1490 1487 1485 1484 1482 1481 1481 1480 1480 1480 1481 1481 1482 1483 1485 1486 1488 1490 1492 1495 1497 1499 1501 1503 1506 1509 1512 1514
1501 1505 1505 1503 1499 1499 1501 1501 1497 1496 1496 1496 1496 1497 1497 1497 1496 1495 1494 1492 1490 1487 1485 1482 1481 1479 1478 1477 1477 1476 1476 1477 1477 1478 1479 1480 1482 1483 1485 1487 1490 1492 1494 1496 1499 1501 1504 1506 1509
1505 1506 1506 1505 1502 1501 1502 1499 1496 1495 1495 1495 1495 1495 1495 1495 1495 1494 1492 1490 1488 1485 1483 1480 1478 1476 1475 1474 1473 1472 1472 1472 1473 1473 1474 1475 1477 1478 1480 1483 1485 1487 1489 1491 1494 1496 1498 1501 1504
1503 1505 1507 1505 1502 1502 1501 1498 1495 1493 1494 1493 1493 1493 1493 1493 1493 1492 1491 1489 1486 1483 1480 1478 1475 1473 1471 1470 1469 1468 1468 1468 1468 1469 1470 1471 1472 1474 1475 1477 1479 1482 1484 1486 1488 1490 1493 1496 1499
1503 1506 1507 1505 1502 1502 1502 1499 1493 1492 1492 1491 1492 1491 1491 1491 1490 1489 1488 1486 1484 1481 1478 1475 1473 1470 1468 1467 1466 1465 1464 1464 1464 1465 1466 1466 1468 1469 1470 1472 1474 1476 1479 1481 1482 1485 1488 1490 1493
1504 1506 1506 1506 1505 1503 1503 1498 1493 1490 1490 1490 1490 1489 1489 1489 1488 1487 1485 1484 1481 1478 1476 1473 1470 1468 1466 1464 1463 1462 1461 1461 1461 1460 1461 1462 1463 1464 1466 1467 1469 1471 1474 1475 1477 1479 1482 1485 1488
1505 1504 1504 1505 1508 1510 1507 1507 1494 1490 1490 1488 1487 1487 1486 1487 1486 1485 1483 1481 1479 1477 1474 1471 1468 1466 1463 1461 1460 1459 1458 1457 1457 1457 1457 1458 1459 1460 1461 1463 1464 1466 1468 1470 1472 1475 1476 1479 1481
1505 1504 1505 1507 1509 1512 1509 1510 1498 1491 1489 1486 1484 1484 1484 1484 1484 1483 1482 1480 1478 1475 1472 1469 1467 1464 1461 1459 1458 1457 1456 1455 1454 1454 1454 1454 1455 1456 1457 1458 1459 1460 1462 1464 1467 1469 1471 1473 1475
1504 1506 1508 1511 1513 1512 1507 1509 1499 1492 1485 1483 1482 1482 1482 1482 1482 1481 1480 1478 1476 1473 1471 1468 1465 1462 1459 1457 1456 1454 1454 1453 1452 1451 1450 1450 1451 1451 1452 1453 1454 1455 1457 1459 1461 1463 1466 1468 1470
1506 1511 1516 1514 1518 1511 1507 1508 1497 1483 1481 1480 1480 1480 1480 1480 1480 1478 1477 1475 1473 1471 1469 1466 1463 1460 1458 1455 1454 1453 1451 1450 1449 1449 1447 1447 1446 1446 1447 1448 1449 1451 1452 1454 1456 1458 1460 1462 1464
1508 1510 1517 1516 1519 1515 1509 1506 1489 1481 1479 1478 1479 1479 1479 1478 1478 1477 1476 1474 1472 1470 1467 1465 1462 1459 1457 1454 1452 1451 1450 1448 1447 1446 1445 1444 1443 1443 1443 1444 1445 1446 1448 1449 1451 1453 1454 1457 1458
1508 1512 1513 1520 1521 1520 1508 1499 1486 1478 1477 1477 1477 1477 1477 1476 1476 1475 1474 1473 1471 1468 1466 1464 1461 1458 1456 1453 1451 1449 1448 1446 1445 1443 1442 1441 1440 1440 1440 1440 1441 1442 1443 1444 1446 1448 1449 1451 1452
1507 1511 1517 1518 1516 1512 1503 1499 1490 1478 1476 1476 1476 1475 1475 1475 1474 1474 1473 1471 1469 1467 1465 1463 1460 1457 1455 1452 1450 1448 1446 1444 1442 1440 1439 1438 1437 1437 1437 1437 1437 1438 1439 1440 1442 1443 1444 1446 1447
1509 1512 1514 1519 1518 1516 1510 1494 1478 1476 1474 1474 1473 1473 1473 1473 1472 1472 1471 1469 1468 1466 1464 1461 1458 1456 1453 1450 1448 1446 1444 1442 1440 1438 1436 1435 1434 1434 1433 1434 1433 1434 1435 1436 1438 1439 1440 1441 1442
1506 1508 1512 1515 1516 1520 1517 1496 1473 1472 1471 1471 1471 1471 1471 1471 1471 1470 1469 1467 1465 1463 1461 1459 1457 1454 1452 1449 1447 1444 1442 1440 1438 1436 1434 1433 1432 1431 1431 1430 1430 1430 1431 1432 1433 1434 1435 1436 1437